Duchifat 3
1 44854U 19089C   25097.17371526  .00071050  00000-0  17133-2 0  9997
2 44854  36.9467  36.5854 0002882 324.3681  35.6881 15.40122046293213
TO-108
1 44881U 19093C   25097.85003157  .00001994  00000-0  23716-3 0  9994
2 44881  97.7948 174.8110 0015248  79.3819 280.9113 14.85413384286764
FloripaSat 1
1 44885U 19093G   25097.82852237  .00009840  00000-0  84753-3 0  9992
2 44885  97.8146 185.3446 0010848  60.2517 299.9782 14.97504617287354
RS-44
1 44909U 19096E   25097.54134442  .00000043  00000-0  12142-3 0  9991
2 44909  82.5168 269.1665 0218458  83.0525 279.5370 12.79739966246626
UPMSat 2
1 46276U 20061E   25097.87669396  .00067214  00000-0  83119-3 0  9996
2 46276  97.2508 170.5332 0001798 147.3412 212.7956 15.59899127255668
SALSAT
1 46495U 20068K   25097.51028256  .00012622  00000-0  56291-3 0  9995
2 46495  97.8559  72.6964 0012780  31.4328 328.7668 15.21480222248939
CubeSX-Sirius-HSE
1 47951U 21022V   25097.83419031  .00163515  00000-0  15144-2 0  9993
2 47951  97.4234   7.4085 0010093 136.8622 223.3431 15.66929409223930
CubeSX-HSE
1 47952U 21022W   25097.85944587  .00162406  00000-0  14697-2 0  9995
2 47952  97.4245   7.6617 0010091 132.9598 227.2511 15.67507801223956
GRBAlpha
1 47959U 21022AD  25097.82949293  .00162541  00000-0  14960-2 0  9991
2 47959  97.4230   7.7610 0009961 136.7172 223.4873 15.67089539222776
Orbicraft-Zorkiy
1 47960U 21022AE  25097.85808266  .01486201  14359-2  20301-2 0  9993
2 47960  97.4135  12.3363 0009090 148.4394 211.7434 16.06536227223733
TUBIN
1 48900U 21059X   25097.82782178  .00056970  00000-0  87822-3 0  9991
2 48900  97.6715 262.2645 0003653 125.2262 234.9333 15.53983344210276
LEDSAT
1 49069U 21073D   25097.75130331  .00070636  00000-0  11735-2 0  9998
2 49069  97.3939 177.0637 0010508 300.1141  59.9069 15.51787689201665
CUTE
1 49263U 21088D   25097.17307554  .00024179  00000-0  52755-3 0  9998
2 49263  97.4550 171.7029 0010138 114.6115 245.6190 15.44168861194639
TeikyoSat 4
1 49396U 21102B   25097.55876288  .00003593  00000-0  24187-3 0  9994
2 49396  97.4186 138.2502 0012273 358.6242   1.4950 15.07271630187056
Z-Sat
1 49399U 21102E   25097.83518286  .00006954  00000-0  38856-3 0  9991
2 49399  97.3886 141.2389 0017030 326.0592  33.9549 15.13689571187480
KOSEN 1
1 49402U 21102H   25097.85896842  .00011160  00000-0  53247-3 0  9991
2 49402  97.3794 144.2208 0014487 300.4978  59.4826 15.19148499187760
HO-113
1 50466U 21131B   25097.84142062  .00001296  00000-0  41942-3 0  9990
2 50466  98.5083 187.5137 0003375 339.0119  21.0931 14.40701595172419
IRIS-A
1 51044U 22002BN  25097.74124646  .00181029  00000-0  13373-2 0  9997
2 51044  97.3304 174.7983 0000424 162.7818 197.3460 15.72433702179937
Foresail-1
1 52766U 22057AL  25097.81074779  .00147989  00000-0  12091-2 0  9991
2 52766  97.6024 243.2218 0004327 187.6784 172.4412 15.70105587159976
SNUGLITE 2
1 52899U 22065F   25097.64162235  .00002820  00000-0  55942-3 0  9990
2 52899  98.1576 240.2704 0006570 316.0127  44.0552 14.62977392147280
IO-117
1 53106U 22080B   25051.21822557 -.00000003  00000-0  00000+0 0  9995
2 53106  70.1434 106.3440 0008542  48.0089 312.1297  6.42557744 61200
UmKA 1 (RS40S)
1 57172U 23091G   25097.85826446  .00009274  00000-0  50774-3 0  9991
2 57172  97.5656 153.5841 0014948 185.2104 174.8975 15.14361445 97984
CubeBel-2 (EU11S)
1 57175U 23091K   25097.84201305  .00014973  00000-0  74382-3 0  9997
2 57175  97.5656 154.3613 0012814 193.7428 166.3458 15.17695273 98037
VERONIKA
1 58261U 23174F   25097.82276080  .00105893  00000-0  15768-2 0  9990
2 58261  97.4177 180.9841 0007225 255.5640 104.4812 15.54726383 78888
ENSO
1 58470U 23185J   25097.85186501  .00061084  00000-0  11489-2 0  9994
2 58470  97.3789 171.2831 0006465 296.6882  63.3706 15.48337409 75308
EIRSAT-1
1 58472U 23185L   25097.83226269  .00089468  00000-0  13343-2 0  9997
2 58472  97.3767 172.3314 0005820 290.5097  69.5532 15.54754416 75379
SONATE-2
1 59112U 24043Q   25097.30907472  .00029564  00000-0  92530-3 0  9994
2 59112  97.5030 227.3712 0010721 341.1387  18.9456 15.33017881 60631
MO-122
1 60209U 24125G   25097.13998041  .00030290  00000-0  93537-3 0  9993
2 60209  97.2887 309.5524 0019825   9.2098 350.9504 15.33300187 42228
GRBBeta
1 60237U 24128C   25096.97186956  .00008582  00000-0  65393-3 0  9990
2 60237  61.9922 301.2262 0045861  43.8213 316.6502 15.01882574 40648
Curium One
1 60242U 24128H   25096.90406126  .00014439  00000-0  10334-2 0  9995
2 60242  61.9822 300.6054 0045589  39.4098 321.0294 15.03838977 40653
ROBUSTA-3A
1 60243U 24128J   25097.81945379  .00010877  00000-0  79159-3 0  9998
2 60243  61.9891 298.0356 0044128  37.3533 323.0612 15.03469367 40787
CatSat
1 60246U 24125J   25097.56425830  .00012695  00000-0  44357-3 0  9997
2 60246  97.2671 309.8550 0042607 320.1584  39.6530 15.28815246 40354
HYPERVIEW-1G (RS66S)
1 61772U 24199AP  25097.86191000  .00029412  00000-0  93981-3 0  9997
2 61772  97.3642 326.9464 0015935  62.1101 298.1752 15.32286297 67343
AO-123
1 61781U 24199AY  25097.83833955  .00011810  00000-0  44304-3 0  9994
2 61781  97.3653 326.3876 0017755  63.6201 296.6858 15.27231896 67300
ZIMSAT 2
1 61783U 24199BA  25097.88952881  .00041151  00000-0  11906-2 0  9993
2 61783  97.3633 327.2036 0016589  60.9356 299.3547 15.35353707 70510
HADES-R (SO-124)
1 62690U 25009CK  25097.75607036  .00047085  00000-0  19526-2 0  9995
2 62690  97.4121 179.0308 0002132 273.0587  87.0406 15.23716201 12564
HYDRA-T
1 62692U 25009CM  25097.15899668  .00055979  00000-0  23105-2 0  9994
2 62692  97.4120 178.4534 0002086 265.2224  94.8775 15.23827018 12472
JINJUSat 1B
1 63210U 25052A   25097.58763534  .00019059  00000-0  91907-3 0  9993
2 63210  97.4495 352.5613 0004860 155.7174 204.4290 15.18737271  3685
NUSHSAT 1
1 63211U 25052B   25097.58820658  .00021178  00000-0  10200-2 0  9996
2 63211  97.4486 352.5581 0004685 159.9733 200.1686 15.18759118  3688
TEVEL2-4
1 63213U 25052D   25097.59108309  .00020241  00000-0  98122-3 0  9991
2 63213  97.4402 352.5316 0003222 168.7407 191.3900 15.18547887  3684
TEVEL2-5
1 63214U 25052E   25097.59113239  .00019980  00000-0  96881-3 0  9998
2 63214  97.4402 352.5316 0003228 169.0886 191.0418 15.18541118  3688
TEVEL2-6
1 63215U 25052F   25097.59163403  .00019850  00000-0  96362-3 0  9997
2 63215  97.4404 352.5313 0003232 170.3607 189.7690 15.18502974  3682
TEVEL2-1
1 63217U 25052H   25097.59439363  .00020165  00000-0  98394-3 0  9998
2 63217  97.4377 352.5208 0002837 186.4847 173.6351 15.18321926  3682
TEVEL2-2
1 63218U 25052J   25097.59452488  .00020157  00000-0  98381-3 0  9999
2 63218  97.4378 352.5206 0002838 187.4760 172.6432 15.18312896  3683
TEVEL2-3
1 63219U 25052K   25097.59453009  .00020165  00000-0  98419-3 0  9991
2 63219  97.4379 352.5208 0002857 187.7997 172.3193 15.18313308  3683
TEVEL2-8
1 63237U 25052AD  25097.54551222  .00016609  00000-0  83777-3 0  9991
2 63237  97.4442 352.4510 0006777 223.9216 136.1479 15.17185038  3671
TEVEL2-9
1 63238U 25052AE  25097.61184784  .00017667  00000-0  89154-3 0  9995
2 63238  97.4443 352.5158 0006881 223.8404 136.2284 15.17156545  3683
TEVEL2-7
1 63239U 25052AF  25097.61232658  .00017508  00000-0  88451-3 0  9993
2 63239  97.4441 352.5148 0006858 224.0921 135.9766 15.17119525  3680
